This demonstration page uses our WeatherBlox Daily Observations layout. Learn more.

Left ArrowRight Arrow

38.80484, -77.04692

Hourly Observations for October 4, 2021

Temp ( °F °C ) Dew Point ( °F °C ) Humidity (%) Winds ( mph kmh ) Pressure ( in mb ) Visibility ( mi km ) Precip ( " mm )
12:52 am 00:52 Mostly Cloudy 73 22.8 65 18.3 76 76 S 10 17 29.91 1013 10 16 0.00 0.00
1:52 am 01:52 Cloudy 73 22.8 66 18.9 79 79 S 9 15 29.90 1013 10 16 0.00 0.00
2:52 am 02:52 Cloudy 73 22.8 64 17.8 74 74 S 10 17 29.90 1013 10 16 0.00 0.00
3:52 am 03:52 Cloudy 72 22.2 64 17.8 76 76 S 7 11 29.89 1012 10 16 0.00 0.00
4:52 am 04:52 Cloudy 71 21.7 65 18.3 81 81 S 9 15 29.89 1012 10 16 0.00 0.00
5:52 am 05:52 Cloudy 71 21.7 64 17.8 79 79 S 8 13 29.91 1013 10 16 0.00 0.00
6:52 am 06:52 Mostly Cloudy 70 21.1 64 17.8 82 82 SSW 7 11 29.92 1013 10 16 0.00 0.00
7:52 am 07:52 Cloudy 70 21.1 65 18.3 84 84 SSW 6 9 29.94 1014 10 16 0.00 0.00
8:52 am 08:52 Cloudy 72 22.2 65 18.3 79 79 SW 7 11 29.96 1014 10 16 0.00 0.00
9:52 am 09:52 Mostly Cloudy 73 22.8 65 18.3 76 76 SW 7 11 29.97 1015 10 16 0.00 0.00
10:52 am 10:52 Cloudy 73 22.8 66 18.9 79 79 SSE 6 9 29.96 1015 10 16 0.00 0.00
11:52 am 11:52 Cloudy 75 23.9 66 18.9 74 74 SSE 6 9 29.96 1015 10 16 0.00 0.00
12:52 pm 12:52 Mostly Cloudy 78 25.6 67 19.4 69 69 SSE 8 13 29.96 1014 10 16 0.00 0.00
1:52 pm 13:52 Mostly Cloudy 81 27.2 67 19.4 62 62 S 7 11 29.94 1014 10 16 0.00 0.00
2:52 pm 14:52 Mostly Cloudy 80 26.7 64 17.8 58 58 S 12 19 29.93 1014 10 16 0.00 0.00
3:52 pm 15:52 Mostly Cloudy 82 27.8 65 18.3 56 56 S 10 17 29.93 1014 10 16 0.00 0.00
4:52 pm 16:52 Mostly Cloudy 82 27.8 65 18.3 56 56 S 12 19 29.93 1014 10 16 0.00 0.00
5:52 pm 17:52 Partly Cloudy 81 27.2 65 18.3 58 58 S 7 11 29.94 1014 10 16 0.00 0.00
6:52 pm 18:52 Mostly Cloudy 77 25 66 18.9 69 69 S 7 11 29.96 1015 10 16 0.00 0.00
7:52 pm 19:52 Mostly Cloudy 75 23.9 67 19.4 76 76 S 7 11 29.97 1015 10 16 0.00 0.00
8:52 pm 20:52 Mostly Cloudy 75 23.9 68 20 79 79 S 8 13 30.00 1016 10 16 0.00 0.00
9:52 pm 21:52 Mostly Cloudy 74 23.3 68 20 82 82 S 8 13 30.01 1016 10 16 0.00 0.00
10:52 pm 22:52 Partly Cloudy 73 22.8 67 19.4 81 81 S 9 15 30.03 1017 10 16 0.00 0.00
11:52 pm 23:52 Partly Cloudy 72 22.2 67 19.4 84 84 S 8 13 30.03 1017 10 16 0.00 0.00

Powered by AerisWeather